Year,Month,Day,Hour,Minute,Value (Times are PST for temperature in C)
2018,04,02,00,00,2.70
2018,04,02,00,01,2.70
2018,04,02,00,02,2.70
2018,04,02,00,03,2.70
2018,04,02,00,04,2.70
2018,04,02,00,05,2.60
2018,04,02,00,06,2.60
2018,04,02,00,07,2.60
2018,04,02,00,08,2.60
2018,04,02,00,09,2.60
2018,04,02,00,10,2.60
2018,04,02,00,11,2.60
2018,04,02,00,12,2.60
2018,04,02,00,13,2.60
2018,04,02,00,14,2.60
2018,04,02,00,15,2.60
2018,04,02,00,16,2.60
2018,04,02,00,17,2.60
2018,04,02,00,18,2.60
2018,04,02,00,19,2.60
2018,04,02,00,20,2.60
2018,04,02,00,21,2.60
2018,04,02,00,22,2.60
2018,04,02,00,23,2.60
2018,04,02,00,24,2.70
2018,04,02,00,25,2.70
2018,04,02,00,26,2.70
2018,04,02,00,27,2.70
2018,04,02,00,28,2.70
2018,04,02,00,29,2.70
2018,04,02,00,30,2.70
2018,04,02,00,31,2.70
2018,04,02,00,32,2.70
2018,04,02,00,33,2.70
2018,04,02,00,34,2.80
2018,04,02,00,35,2.80
2018,04,02,00,36,2.80
2018,04,02,00,37,2.80
2018,04,02,00,38,2.90
2018,04,02,00,39,2.90
2018,04,02,00,40,2.90
2018,04,02,00,41,3.00
2018,04,02,00,42,3.00
2018,04,02,00,43,3.00
2018,04,02,00,44,3.00
2018,04,02,00,45,3.00
2018,04,02,00,46,3.00
2018,04,02,00,47,3.10
2018,04,02,00,48,3.10
2018,04,02,00,49,3.10
2018,04,02,00,50,3.00
2018,04,02,00,51,3.00
2018,04,02,00,52,3.00
2018,04,02,00,53,3.00
2018,04,02,00,54,3.00
2018,04,02,00,55,3.00
2018,04,02,00,56,3.00
2018,04,02,00,57,3.00
2018,04,02,00,58,3.00
2018,04,02,00,59,3.00
2018,04,02,01,00,3.00
2018,04,02,01,01,3.00
2018,04,02,01,02,3.00
2018,04,02,01,03,3.00
2018,04,02,01,04,3.00
2018,04,02,01,05,3.00
2018,04,02,01,06,3.00
2018,04,02,01,07,3.00
2018,04,02,01,08,3.00
2018,04,02,01,09,3.00
2018,04,02,01,10,3.00
2018,04,02,01,11,3.00
2018,04,02,01,12,3.00
2018,04,02,01,13,3.10
2018,04,02,01,14,3.10
2018,04,02,01,15,3.10
2018,04,02,01,16,3.10
2018,04,02,01,17,3.10
2018,04,02,01,18,3.20
2018,04,02,01,19,3.20
2018,04,02,01,20,3.30
2018,04,02,01,21,3.30
2018,04,02,01,22,3.40
2018,04,02,01,23,3.40
2018,04,02,01,24,3.50
2018,04,02,01,25,3.50
2018,04,02,01,26,3.50
2018,04,02,01,27,3.50
2018,04,02,01,28,3.60
2018,04,02,01,29,3.60
2018,04,02,01,30,3.60
2018,04,02,01,31,3.60
2018,04,02,01,32,3.60
2018,04,02,01,33,3.60
2018,04,02,01,34,3.60
2018,04,02,01,35,3.60
2018,04,02,01,36,3.60
2018,04,02,01,37,3.60
2018,04,02,01,38,3.60
2018,04,02,01,39,3.70
2018,04,02,01,40,3.70
2018,04,02,01,41,3.70
2018,04,02,01,42,3.70
2018,04,02,01,43,3.70
2018,04,02,01,44,3.70
2018,04,02,01,45,3.80
2018,04,02,01,46,3.80
2018,04,02,01,47,3.80
2018,04,02,01,48,3.80
2018,04,02,01,49,3.80
2018,04,02,01,50,3.80
2018,04,02,01,51,3.80
2018,04,02,01,52,3.80
2018,04,02,01,53,3.80
2018,04,02,01,54,3.80
2018,04,02,01,55,3.70
2018,04,02,01,56,3.70
2018,04,02,01,57,3.70
2018,04,02,01,58,3.70
2018,04,02,01,59,3.70
2018,04,02,02,00,3.70
2018,04,02,02,01,3.70
2018,04,02,02,02,3.70
2018,04,02,02,03,3.70
2018,04,02,02,04,3.70
2018,04,02,02,05,3.70
2018,04,02,02,06,3.60
2018,04,02,02,07,3.70
2018,04,02,02,08,3.70
2018,04,02,02,09,3.70
2018,04,02,02,10,3.60
2018,04,02,02,11,3.60
2018,04,02,02,12,3.60
2018,04,02,02,13,3.60
2018,04,02,02,14,3.60
2018,04,02,02,15,3.60
2018,04,02,02,16,3.50
2018,04,02,02,17,3.50
2018,04,02,02,18,3.50
2018,04,02,02,19,3.50
2018,04,02,02,20,3.50
2018,04,02,02,21,3.40
2018,04,02,02,22,3.40
2018,04,02,02,23,3.40
2018,04,02,02,24,3.40
2018,04,02,02,25,3.40
2018,04,02,02,26,3.30
2018,04,02,02,27,3.30
2018,04,02,02,28,3.30
2018,04,02,02,29,3.30
2018,04,02,02,30,3.30
2018,04,02,02,31,3.30
2018,04,02,02,32,3.30
2018,04,02,02,33,3.40
2018,04,02,02,34,3.40
2018,04,02,02,35,3.40
2018,04,02,02,36,3.40
2018,04,02,02,37,3.40
2018,04,02,02,38,3.40
2018,04,02,02,39,3.40
2018,04,02,02,40,3.50
2018,04,02,02,41,3.60
2018,04,02,02,42,3.60
2018,04,02,02,43,3.60
2018,04,02,02,44,3.60
2018,04,02,02,45,3.60
2018,04,02,02,46,3.60
2018,04,02,02,47,3.60
2018,04,02,02,48,3.60
2018,04,02,02,49,3.60
2018,04,02,02,50,3.60
2018,04,02,02,51,3.60
2018,04,02,02,52,3.60
2018,04,02,02,53,3.60
2018,04,02,02,54,3.60
2018,04,02,02,55,3.60
2018,04,02,02,56,3.60
2018,04,02,02,57,3.60
2018,04,02,02,58,3.60
2018,04,02,02,59,3.50
2018,04,02,03,00,3.50
2018,04,02,03,01,3.50
2018,04,02,03,02,3.50
2018,04,02,03,03,3.50
2018,04,02,03,04,3.40
2018,04,02,03,05,3.40
2018,04,02,03,06,3.40
2018,04,02,03,07,3.40
2018,04,02,03,08,3.40
2018,04,02,03,09,3.40
2018,04,02,03,10,3.40
2018,04,02,03,11,3.40
2018,04,02,03,12,3.40
2018,04,02,03,13,3.30
2018,04,02,03,14,3.30
2018,04,02,03,15,3.30
2018,04,02,03,16,3.30
2018,04,02,03,17,3.30
2018,04,02,03,18,3.20
2018,04,02,03,19,3.20
2018,04,02,03,20,3.20
2018,04,02,03,21,3.20
2018,04,02,03,22,3.20
2018,04,02,03,23,3.20
2018,04,02,03,24,3.20
2018,04,02,03,25,3.20
2018,04,02,03,26,3.20
2018,04,02,03,27,3.20
2018,04,02,03,28,3.10
2018,04,02,03,29,3.10
2018,04,02,03,30,3.10
2018,04,02,03,31,3.10
2018,04,02,03,32,3.10
2018,04,02,03,33,3.10
2018,04,02,03,34,3.00
2018,04,02,03,35,3.00
2018,04,02,03,36,3.00
2018,04,02,03,37,2.90
2018,04,02,03,38,2.90
2018,04,02,03,39,2.90
2018,04,02,03,40,2.90
2018,04,02,03,41,2.90
2018,04,02,03,42,2.80
2018,04,02,03,43,2.80
2018,04,02,03,44,2.80
2018,04,02,03,45,2.80
2018,04,02,03,46,2.80
2018,04,02,03,47,2.80
2018,04,02,03,48,2.70
2018,04,02,03,49,2.70
2018,04,02,03,50,2.70
2018,04,02,03,51,2.70
2018,04,02,03,52,2.70
2018,04,02,03,53,2.80
2018,04,02,03,54,2.80
2018,04,02,03,55,2.80
2018,04,02,03,56,2.80
2018,04,02,03,57,2.70
2018,04,02,03,58,2.70
2018,04,02,03,59,2.70
2018,04,02,04,00,2.70
2018,04,02,04,01,2.70
2018,04,02,04,02,2.70
2018,04,02,04,03,2.70
2018,04,02,04,04,2.70
2018,04,02,04,05,2.70
2018,04,02,04,06,2.70
2018,04,02,04,07,2.70
2018,04,02,04,08,2.70
2018,04,02,04,09,2.70
2018,04,02,04,10,2.70
2018,04,02,04,11,2.70
2018,04,02,04,12,2.70
2018,04,02,04,13,2.80
2018,04,02,04,14,2.80
2018,04,02,04,15,2.80
2018,04,02,04,16,2.80
2018,04,02,04,17,2.80
2018,04,02,04,18,2.80
2018,04,02,04,19,2.80
2018,04,02,04,20,2.80
2018,04,02,04,21,2.80
2018,04,02,04,22,2.80
2018,04,02,04,23,2.80
2018,04,02,04,24,2.80
2018,04,02,04,25,2.80
2018,04,02,04,26,2.70
2018,04,02,04,27,2.80
2018,04,02,04,28,2.80
2018,04,02,04,29,2.80
2018,04,02,04,30,2.80
2018,04,02,04,31,2.80
2018,04,02,04,32,2.80
2018,04,02,04,33,2.80
2018,04,02,04,34,2.80
2018,04,02,04,35,2.80
2018,04,02,04,36,2.80
2018,04,02,04,37,2.80
2018,04,02,04,38,2.80
2018,04,02,04,39,2.80
2018,04,02,04,40,2.80
2018,04,02,04,41,2.70
2018,04,02,04,42,2.70
2018,04,02,04,43,2.70
2018,04,02,04,44,2.70
2018,04,02,04,45,2.70
2018,04,02,04,46,2.70
2018,04,02,04,47,2.60
2018,04,02,04,48,2.60
2018,04,02,04,49,2.60
2018,04,02,04,50,2.60
2018,04,02,04,51,2.60
2018,04,02,04,52,2.60
2018,04,02,04,53,2.60
2018,04,02,04,54,2.60
2018,04,02,04,55,2.60
2018,04,02,04,56,2.50
2018,04,02,04,57,2.50
2018,04,02,04,58,2.50
2018,04,02,04,59,2.50
2018,04,02,05,00,2.50
2018,04,02,05,01,2.50
2018,04,02,05,02,2.50
2018,04,02,05,03,2.50
2018,04,02,05,04,2.60
2018,04,02,05,05,2.60
2018,04,02,05,06,2.60
2018,04,02,05,07,2.60
2018,04,02,05,08,2.60
2018,04,02,05,09,2.60
2018,04,02,05,10,2.60
2018,04,02,05,11,2.60
2018,04,02,05,12,2.60
2018,04,02,05,13,2.60
2018,04,02,05,14,2.60
2018,04,02,05,15,2.60
2018,04,02,05,16,2.60
2018,04,02,05,17,2.60
2018,04,02,05,18,2.60
2018,04,02,05,19,2.50
2018,04,02,05,20,2.50
2018,04,02,05,21,2.50
2018,04,02,05,22,2.40
2018,04,02,05,23,2.40
2018,04,02,05,24,2.40
2018,04,02,05,25,2.40
2018,04,02,05,26,2.40
2018,04,02,05,27,2.40
2018,04,02,05,28,2.30
2018,04,02,05,29,2.30
2018,04,02,05,30,2.30
2018,04,02,05,31,2.30
2018,04,02,05,32,2.30
2018,04,02,05,33,2.30
2018,04,02,05,34,2.30
2018,04,02,05,35,2.30
2018,04,02,05,36,2.20
2018,04,02,05,37,2.20
2018,04,02,05,38,2.20
2018,04,02,05,39,2.20
2018,04,02,05,40,2.20
2018,04,02,05,41,2.20
2018,04,02,05,42,2.20
2018,04,02,05,43,2.20
2018,04,02,05,44,2.20
2018,04,02,05,45,2.10
2018,04,02,05,46,2.10
2018,04,02,05,47,2.10
2018,04,02,05,48,2.10
2018,04,02,05,49,2.10
2018,04,02,05,50,2.10
2018,04,02,05,51,2.10
2018,04,02,05,52,2.10
2018,04,02,05,53,2.10
2018,04,02,05,54,2.10
2018,04,02,05,55,2.20
2018,04,02,05,56,2.20
2018,04,02,05,57,2.20
2018,04,02,05,58,2.20
2018,04,02,05,59,2.20
2018,04,02,06,00,2.10
2018,04,02,06,01,2.10
2018,04,02,06,02,2.10
2018,04,02,06,03,2.10
2018,04,02,06,04,2.10
2018,04,02,06,05,2.10
2018,04,02,06,06,2.10
2018,04,02,06,07,2.10
2018,04,02,06,08,2.10
2018,04,02,06,09,2.10
2018,04,02,06,10,2.10
2018,04,02,06,11,2.10
2018,04,02,06,12,2.10
2018,04,02,06,13,2.10
2018,04,02,06,14,2.10
2018,04,02,06,15,2.10
2018,04,02,06,16,2.20
2018,04,02,06,17,2.20
2018,04,02,06,18,2.10
2018,04,02,06,19,2.10
2018,04,02,06,20,2.10
2018,04,02,06,21,2.20
2018,04,02,06,22,2.20
2018,04,02,06,23,2.20
2018,04,02,06,24,2.20
2018,04,02,06,25,2.30
2018,04,02,06,26,2.30
2018,04,02,06,27,2.30
2018,04,02,06,28,2.30
2018,04,02,06,29,2.30
2018,04,02,06,30,2.30
2018,04,02,06,31,2.30
2018,04,02,06,32,2.30
2018,04,02,06,33,2.30
2018,04,02,06,34,2.40
2018,04,02,06,35,2.30
2018,04,02,06,36,2.30
2018,04,02,06,37,2.30
2018,04,02,06,38,2.30
2018,04,02,06,39,2.20
2018,04,02,06,40,2.30
2018,04,02,06,41,2.30
2018,04,02,06,42,2.30
2018,04,02,06,43,2.20
2018,04,02,06,44,2.20
2018,04,02,06,45,2.20
2018,04,02,06,46,2.20
2018,04,02,06,47,2.20
2018,04,02,06,48,2.10
2018,04,02,06,49,2.10
2018,04,02,06,50,2.10
2018,04,02,06,51,2.10
2018,04,02,06,52,2.10
2018,04,02,06,53,2.10
2018,04,02,06,54,2.00
2018,04,02,06,55,2.00
2018,04,02,06,56,2.00
2018,04,02,06,57,1.90
2018,04,02,06,58,1.90
2018,04,02,06,59,1.90
2018,04,02,07,00,1.90
2018,04,02,07,01,1.90
2018,04,02,07,02,1.90
2018,04,02,07,03,1.90
2018,04,02,07,04,1.90
2018,04,02,07,05,1.90
2018,04,02,07,06,1.90
2018,04,02,07,07,1.90
2018,04,02,07,08,1.90
2018,04,02,07,09,1.90
2018,04,02,07,10,1.90
2018,04,02,07,11,1.90
2018,04,02,07,12,1.90
2018,04,02,07,13,1.90
2018,04,02,07,14,2.00
2018,04,02,07,15,2.00
2018,04,02,07,16,1.90
2018,04,02,07,17,1.90
2018,04,02,07,18,1.90
2018,04,02,07,19,1.90
2018,04,02,07,20,1.90
2018,04,02,07,21,1.90
2018,04,02,07,22,1.80
2018,04,02,07,23,1.80
2018,04,02,07,24,1.80
2018,04,02,07,25,1.80
2018,04,02,07,26,1.80
2018,04,02,07,27,1.80
2018,04,02,07,28,1.80
2018,04,02,07,29,1.80
2018,04,02,07,30,1.90
2018,04,02,07,31,1.90
2018,04,02,07,32,1.90
2018,04,02,07,33,2.00
2018,04,02,07,34,2.00
2018,04,02,07,35,2.10
2018,04,02,07,36,2.10
2018,04,02,07,37,2.10
2018,04,02,07,38,2.10
2018,04,02,07,39,2.20
2018,04,02,07,40,2.20
2018,04,02,07,41,2.30
2018,04,02,07,42,2.30
2018,04,02,07,43,2.30
2018,04,02,07,44,2.30
2018,04,02,07,45,2.40
2018,04,02,07,46,2.40
2018,04,02,07,47,2.40
2018,04,02,07,48,2.50
2018,04,02,07,49,2.50
2018,04,02,07,50,2.60
2018,04,02,07,51,2.60
2018,04,02,07,52,2.70
2018,04,02,07,53,2.80
2018,04,02,07,54,2.80
2018,04,02,07,55,2.90
2018,04,02,07,56,3.00
2018,04,02,07,57,3.00
2018,04,02,07,58,3.10
2018,04,02,07,59,3.20
2018,04,02,08,00,3.30
2018,04,02,08,01,3.30
2018,04,02,08,02,3.40
2018,04,02,08,03,3.40
2018,04,02,08,04,3.50
2018,04,02,08,05,3.60
2018,04,02,08,06,3.70
2018,04,02,08,07,3.70
2018,04,02,08,08,3.80
2018,04,02,08,09,3.80
2018,04,02,08,10,3.90
2018,04,02,08,11,3.90
2018,04,02,08,12,4.00
2018,04,02,08,13,4.00
2018,04,02,08,14,4.10
2018,04,02,08,15,4.10
2018,04,02,08,16,4.20
2018,04,02,08,17,4.20
2018,04,02,08,18,4.30
2018,04,02,08,19,4.30
2018,04,02,08,20,4.40
2018,04,02,08,21,4.40
2018,04,02,08,22,4.50
2018,04,02,08,23,4.50
2018,04,02,08,24,4.50
2018,04,02,08,25,4.60
2018,04,02,08,26,4.60
2018,04,02,08,27,4.60
2018,04,02,08,28,4.70
2018,04,02,08,29,4.70
2018,04,02,08,30,4.70
2018,04,02,08,31,4.80
2018,04,02,08,32,4.80
2018,04,02,08,33,4.80
2018,04,02,08,34,4.80
2018,04,02,08,35,4.90
2018,04,02,08,36,4.90
2018,04,02,08,37,4.90
2018,04,02,08,38,4.90
2018,04,02,08,39,4.90
2018,04,02,08,40,5.00
2018,04,02,08,41,5.00
2018,04,02,08,42,5.00
2018,04,02,08,43,5.10
2018,04,02,08,44,5.10
2018,04,02,08,45,5.10
2018,04,02,08,46,5.10
2018,04,02,08,47,5.20
2018,04,02,08,48,5.20
2018,04,02,08,49,5.20
2018,04,02,08,50,5.30
2018,04,02,08,51,5.30
2018,04,02,08,52,5.30
2018,04,02,08,53,5.30
2018,04,02,08,54,5.40
2018,04,02,08,55,5.40
2018,04,02,08,56,5.40
2018,04,02,08,57,5.50
2018,04,02,08,58,5.50
2018,04,02,08,59,5.60
2018,04,02,09,00,5.60
2018,04,02,09,01,5.70
2018,04,02,09,02,5.70
2018,04,02,09,03,5.70
2018,04,02,09,04,5.70
2018,04,02,09,05,5.70
2018,04,02,09,06,5.70
2018,04,02,09,07,5.80
2018,04,02,09,08,5.80
2018,04,02,09,09,5.80
2018,04,02,09,10,5.80
2018,04,02,09,11,5.80
2018,04,02,09,12,5.90
2018,04,02,09,13,6.00
2018,04,02,09,14,6.00
2018,04,02,09,15,6.00
2018,04,02,09,16,6.00
2018,04,02,09,17,6.10
2018,04,02,09,18,6.10
2018,04,02,09,19,6.10
2018,04,02,09,20,6.10
2018,04,02,09,21,6.20
2018,04,02,09,22,6.20
2018,04,02,09,23,6.20
2018,04,02,09,24,6.30
2018,04,02,09,25,6.30
2018,04,02,09,26,6.30
2018,04,02,09,27,6.30
2018,04,02,09,28,6.30
2018,04,02,09,29,6.30
2018,04,02,09,30,6.30
2018,04,02,09,31,6.30
2018,04,02,09,32,6.30
2018,04,02,09,33,6.30
2018,04,02,09,34,6.40
2018,04,02,09,35,6.50
2018,04,02,09,36,6.50
2018,04,02,09,37,6.50
2018,04,02,09,38,6.50
2018,04,02,09,39,6.50
2018,04,02,09,40,6.50
2018,04,02,09,41,6.60
2018,04,02,09,42,6.60
2018,04,02,09,43,6.70
2018,04,02,09,44,6.70
2018,04,02,09,45,6.70
2018,04,02,09,46,6.80
2018,04,02,09,47,6.90
2018,04,02,09,48,6.90
2018,04,02,09,49,6.90
2018,04,02,09,50,7.00
2018,04,02,09,51,7.00
2018,04,02,09,52,7.10
2018,04,02,09,53,7.10
2018,04,02,09,54,7.10
2018,04,02,09,55,7.10
2018,04,02,09,56,7.20
2018,04,02,09,57,7.20
2018,04,02,09,58,7.20
2018,04,02,09,59,7.20
2018,04,02,10,00,7.20
2018,04,02,10,01,7.20
2018,04,02,10,02,7.10
2018,04,02,10,03,7.10
2018,04,02,10,04,7.00
2018,04,02,10,05,6.90
2018,04,02,10,06,6.90
2018,04,02,10,07,6.90
2018,04,02,10,08,6.90
2018,04,02,10,09,7.00
2018,04,02,10,10,7.00
2018,04,02,10,11,7.10
2018,04,02,10,12,7.10
2018,04,02,10,13,7.10
2018,04,02,10,14,7.10
2018,04,02,10,15,7.10
2018,04,02,10,16,7.10
2018,04,02,10,17,7.10
2018,04,02,10,18,7.10
2018,04,02,10,19,7.20
2018,04,02,10,20,7.20
2018,04,02,10,21,7.10
2018,04,02,10,22,7.10
2018,04,02,10,23,7.10
2018,04,02,10,24,7.10
2018,04,02,10,25,7.10
2018,04,02,10,26,7.20
2018,04,02,10,27,7.20
2018,04,02,10,28,7.30
2018,04,02,10,29,7.30
2018,04,02,10,30,7.30
2018,04,02,10,31,7.30
2018,04,02,10,32,7.20
2018,04,02,10,33,7.20
2018,04,02,10,34,7.30
2018,04,02,10,35,7.40
2018,04,02,10,36,7.40
2018,04,02,10,37,7.40
2018,04,02,10,38,7.40
2018,04,02,10,39,7.50
2018,04,02,10,40,7.50
2018,04,02,10,41,7.60
2018,04,02,10,42,7.50
2018,04,02,10,43,7.40
2018,04,02,10,44,7.40
2018,04,02,10,45,7.30
2018,04,02,10,46,7.30
2018,04,02,10,47,7.30
2018,04,02,10,48,7.30
2018,04,02,10,49,7.40
2018,04,02,10,50,7.50
2018,04,02,10,51,7.60
2018,04,02,10,52,7.60
2018,04,02,10,53,7.60
2018,04,02,10,54,7.60
2018,04,02,10,55,7.60
2018,04,02,10,56,7.60
2018,04,02,10,57,7.70
2018,04,02,10,58,7.70
2018,04,02,10,59,7.70
2018,04,02,11,00,7.70
2018,04,02,11,01,7.80
2018,04,02,11,02,7.80
2018,04,02,11,03,7.90
2018,04,02,11,04,8.00
2018,04,02,11,05,8.00
2018,04,02,11,06,8.10
2018,04,02,11,07,8.10
2018,04,02,11,08,8.10
2018,04,02,11,09,8.10
2018,04,02,11,10,8.10
2018,04,02,11,11,8.10
2018,04,02,11,12,8.20
2018,04,02,11,13,8.20
2018,04,02,11,14,8.20
2018,04,02,11,15,8.20
2018,04,02,11,16,8.20
2018,04,02,11,17,8.10
2018,04,02,11,18,8.00
2018,04,02,11,19,7.90
2018,04,02,11,20,7.90
2018,04,02,11,21,7.90
2018,04,02,11,22,7.90
2018,04,02,11,23,7.90
2018,04,02,11,24,7.90
2018,04,02,11,25,7.90
2018,04,02,11,26,7.90
2018,04,02,11,27,7.90
2018,04,02,11,28,7.90
2018,04,02,11,29,7.90
2018,04,02,11,30,7.90
2018,04,02,11,31,7.90
2018,04,02,11,32,8.00
2018,04,02,11,33,8.20
2018,04,02,11,34,8.20
2018,04,02,11,35,8.20
2018,04,02,11,36,8.10
2018,04,02,11,37,8.10
2018,04,02,11,38,8.10
2018,04,02,11,39,8.10
2018,04,02,11,40,8.10
2018,04,02,11,41,8.10
2018,04,02,11,42,8.10
2018,04,02,11,43,8.20
2018,04,02,11,44,8.10
2018,04,02,11,45,8.10
2018,04,02,11,46,8.10
2018,04,02,11,47,8.10
2018,04,02,11,48,8.00
2018,04,02,11,49,8.00
2018,04,02,11,50,8.00
2018,04,02,11,51,8.00
2018,04,02,11,52,7.90
2018,04,02,11,53,7.90
2018,04,02,11,54,7.90
2018,04,02,11,55,7.80
2018,04,02,11,56,7.70
2018,04,02,11,57,7.80
2018,04,02,11,58,7.90
2018,04,02,11,59,7.80
2018,04,02,12,00,7.90
2018,04,02,12,01,7.90
2018,04,02,12,02,7.90
2018,04,02,12,03,7.90
2018,04,02,12,04,7.90
2018,04,02,12,05,7.90
2018,04,02,12,06,7.90
2018,04,02,12,07,7.80
2018,04,02,12,08,7.80
2018,04,02,12,09,7.80
2018,04,02,12,10,7.90
2018,04,02,12,11,8.00
2018,04,02,12,12,8.00
2018,04,02,12,13,8.00
2018,04,02,12,14,8.00
2018,04,02,12,15,8.00
2018,04,02,12,16,8.00
2018,04,02,12,17,7.90
2018,04,02,12,18,7.80
2018,04,02,12,19,7.70
2018,04,02,12,20,7.70
2018,04,02,12,21,7.70
2018,04,02,12,22,7.60
2018,04,02,12,23,7.70
2018,04,02,12,24,7.70
2018,04,02,12,25,7.80
2018,04,02,12,26,7.90
2018,04,02,12,27,7.90
2018,04,02,12,28,7.90
2018,04,02,12,29,7.90
2018,04,02,12,30,7.90
2018,04,02,12,31,7.90
2018,04,02,12,32,7.80
2018,04,02,12,33,7.70
2018,04,02,12,34,7.70
2018,04,02,12,35,7.70
2018,04,02,12,36,7.60
2018,04,02,12,37,7.60
2018,04,02,12,38,7.60
2018,04,02,12,39,7.60
2018,04,02,12,40,7.60
2018,04,02,12,41,7.50
2018,04,02,12,42,7.60
2018,04,02,12,43,7.60
2018,04,02,12,44,7.60
2018,04,02,12,45,7.70
2018,04,02,12,46,7.70
2018,04,02,12,47,7.70
2018,04,02,12,48,7.70
2018,04,02,12,49,7.80
2018,04,02,12,50,7.80
2018,04,02,12,51,7.80
2018,04,02,12,52,7.80
2018,04,02,12,53,7.90
2018,04,02,12,54,7.80
2018,04,02,12,55,7.80
2018,04,02,12,56,7.90
2018,04,02,12,57,7.90
2018,04,02,12,58,8.00
2018,04,02,12,59,8.00
2018,04,02,13,00,8.00
2018,04,02,13,01,8.00
2018,04,02,13,02,7.90
2018,04,02,13,03,7.90
2018,04,02,13,04,7.90
2018,04,02,13,05,7.90
2018,04,02,13,06,8.00
2018,04,02,13,07,8.00
2018,04,02,13,08,8.10
2018,04,02,13,09,8.10
2018,04,02,13,10,8.20
2018,04,02,13,11,8.10
2018,04,02,13,12,8.10
2018,04,02,13,13,8.10
2018,04,02,13,14,8.10
2018,04,02,13,15,8.10
2018,04,02,13,16,8.10
2018,04,02,13,17,8.00
2018,04,02,13,18,7.90
2018,04,02,13,19,7.90
2018,04,02,13,20,7.90
2018,04,02,13,21,7.90
2018,04,02,13,22,7.90
2018,04,02,13,23,7.90
2018,04,02,13,24,7.80
2018,04,02,13,25,7.80
2018,04,02,13,26,7.80
2018,04,02,13,27,7.90
2018,04,02,13,28,7.90
2018,04,02,13,29,7.90
2018,04,02,13,30,8.00
2018,04,02,13,31,8.00
2018,04,02,13,32,8.10
2018,04,02,13,33,8.30
2018,04,02,13,34,8.50
2018,04,02,13,35,8.60
2018,04,02,13,36,8.70
2018,04,02,13,37,8.70
2018,04,02,13,38,8.70
2018,04,02,13,39,8.60
2018,04,02,13,40,8.60
2018,04,02,13,41,8.60
2018,04,02,13,42,8.60
2018,04,02,13,43,8.70
2018,04,02,13,44,8.60
2018,04,02,13,45,8.50
2018,04,02,13,46,8.50
2018,04,02,13,47,8.40
2018,04,02,13,48,8.40
2018,04,02,13,49,8.30
2018,04,02,13,50,8.40
2018,04,02,13,51,8.40
2018,04,02,13,52,8.40
2018,04,02,13,53,8.40
2018,04,02,13,54,8.30
2018,04,02,13,55,8.30
2018,04,02,13,56,8.30
2018,04,02,13,57,8.30
2018,04,02,13,58,8.30
2018,04,02,13,59,8.30
2018,04,02,14,00,8.30
2018,04,02,14,01,8.30
2018,04,02,14,02,8.30
2018,04,02,14,03,8.30
2018,04,02,14,04,8.30
2018,04,02,14,05,8.30
2018,04,02,14,06,8.40
2018,04,02,14,07,8.40
2018,04,02,14,08,8.40
2018,04,02,14,09,8.40
2018,04,02,14,10,8.50
2018,04,02,14,11,8.50
2018,04,02,14,12,8.60
2018,04,02,14,13,8.70
2018,04,02,14,14,8.70
2018,04,02,14,15,8.60
2018,04,02,14,16,8.50
2018,04,02,14,17,8.40
2018,04,02,14,18,8.30
2018,04,02,14,19,8.30
2018,04,02,14,20,8.30
2018,04,02,14,21,8.40
2018,04,02,14,22,8.40
2018,04,02,14,23,8.40
2018,04,02,14,24,8.40
2018,04,02,14,25,8.50
2018,04,02,14,26,8.60
2018,04,02,14,27,8.60
2018,04,02,14,28,8.50
2018,04,02,14,29,8.40
2018,04,02,14,30,8.40
2018,04,02,14,31,8.30
2018,04,02,14,32,8.30
2018,04,02,14,33,8.30
2018,04,02,14,34,8.20
2018,04,02,14,35,8.10
2018,04,02,14,36,8.10
2018,04,02,14,37,8.00
2018,04,02,14,38,7.90
2018,04,02,14,39,7.90
2018,04,02,14,40,7.90
2018,04,02,14,41,7.90
2018,04,02,14,42,7.90
2018,04,02,14,43,7.90
2018,04,02,14,44,7.90
2018,04,02,14,45,8.00
2018,04,02,14,46,8.00
2018,04,02,14,47,8.00
2018,04,02,14,48,8.00
2018,04,02,14,49,8.10
2018,04,02,14,50,8.00
2018,04,02,14,51,8.00
2018,04,02,14,52,8.00
2018,04,02,14,53,8.10
2018,04,02,14,54,8.10
2018,04,02,14,55,8.10
2018,04,02,14,56,8.00
2018,04,02,14,57,8.00
2018,04,02,14,58,8.00
2018,04,02,14,59,8.10
2018,04,02,15,00,8.10
2018,04,02,15,01,8.10
2018,04,02,15,02,8.10
2018,04,02,15,03,8.10
2018,04,02,15,04,8.00
2018,04,02,15,05,8.00
2018,04,02,15,06,8.10
2018,04,02,15,07,8.10
2018,04,02,15,08,8.20
2018,04,02,15,09,8.20
2018,04,02,15,10,8.20
2018,04,02,15,11,8.20
2018,04,02,15,12,8.20
2018,04,02,15,13,8.20
2018,04,02,15,14,8.30
2018,04,02,15,15,8.30
2018,04,02,15,16,8.40
2018,04,02,15,17,8.40
2018,04,02,15,18,8.40
2018,04,02,15,19,8.40
2018,04,02,15,20,8.50
2018,04,02,15,21,8.60
2018,04,02,15,22,8.70
2018,04,02,15,23,8.70
2018,04,02,15,24,8.70
2018,04,02,15,25,8.70
2018,04,02,15,26,8.60
2018,04,02,15,27,8.50
2018,04,02,15,28,8.40
2018,04,02,15,29,8.40
2018,04,02,15,30,8.40
2018,04,02,15,31,8.50
2018,04,02,15,32,8.60
2018,04,02,15,33,8.70
2018,04,02,15,34,8.90
2018,04,02,15,35,8.90
2018,04,02,15,36,8.90
2018,04,02,15,37,9.00
2018,04,02,15,38,9.10
2018,04,02,15,39,9.10
2018,04,02,15,40,9.10
2018,04,02,15,41,9.00
2018,04,02,15,42,8.80
2018,04,02,15,43,8.70
2018,04,02,15,44,8.70
2018,04,02,15,45,8.60
2018,04,02,15,46,8.60
2018,04,02,15,47,8.60
2018,04,02,15,48,8.60
2018,04,02,15,49,8.60
2018,04,02,15,50,8.50
2018,04,02,15,51,8.40
2018,04,02,15,52,8.40
2018,04,02,15,53,8.40
2018,04,02,15,54,8.30
2018,04,02,15,55,8.30
2018,04,02,15,56,8.30
2018,04,02,15,57,8.30
2018,04,02,15,58,8.30
2018,04,02,15,59,8.40
2018,04,02,16,00,8.50
2018,04,02,16,01,8.50
2018,04,02,16,02,8.60
2018,04,02,16,03,8.60
2018,04,02,16,04,8.60
2018,04,02,16,05,8.60
2018,04,02,16,06,8.60
2018,04,02,16,07,8.50
2018,04,02,16,08,8.50
2018,04,02,16,09,8.50
2018,04,02,16,10,8.50
2018,04,02,16,11,8.50
2018,04,02,16,12,8.40
2018,04,02,16,13,8.40
2018,04,02,16,14,8.40
2018,04,02,16,15,8.40
2018,04,02,16,16,8.50
2018,04,02,16,17,8.60
2018,04,02,16,18,8.60
2018,04,02,16,19,8.70
2018,04,02,16,20,8.80
2018,04,02,16,21,8.90
2018,04,02,16,22,9.00
2018,04,02,16,23,9.10
2018,04,02,16,24,9.10
2018,04,02,16,25,9.10
2018,04,02,16,26,9.00
2018,04,02,16,27,8.90
2018,04,02,16,28,8.80
2018,04,02,16,29,8.80
2018,04,02,16,30,8.70
2018,04,02,16,31,8.70
2018,04,02,16,32,8.70
2018,04,02,16,33,8.70
2018,04,02,16,34,8.80
2018,04,02,16,35,8.80
2018,04,02,16,36,8.80
2018,04,02,16,37,8.80
2018,04,02,16,38,8.80
2018,04,02,16,39,8.70
2018,04,02,16,40,8.70
2018,04,02,16,41,8.70
2018,04,02,16,42,8.70
2018,04,02,16,43,8.70
2018,04,02,16,44,8.80
2018,04,02,16,45,8.80
2018,04,02,16,46,8.80
2018,04,02,16,47,8.80
2018,04,02,16,48,8.80
2018,04,02,16,49,8.80
2018,04,02,16,50,8.80
2018,04,02,16,51,8.80
2018,04,02,16,52,8.80
2018,04,02,16,53,8.80
2018,04,02,16,54,8.80
2018,04,02,16,55,8.80
2018,04,02,16,56,8.80
2018,04,02,16,57,8.80
2018,04,02,16,58,8.80
2018,04,02,16,59,8.90
2018,04,02,17,00,8.90
2018,04,02,17,01,8.90
2018,04,02,17,02,8.90
2018,04,02,17,03,8.90
2018,04,02,17,04,8.90
2018,04,02,17,05,8.90
2018,04,02,17,06,8.90
2018,04,02,17,07,8.90
2018,04,02,17,08,8.90
2018,04,02,17,09,9.00
2018,04,02,17,10,9.00
2018,04,02,17,11,9.00
2018,04,02,17,12,9.00
2018,04,02,17,13,9.00
2018,04,02,17,14,8.90
2018,04,02,17,15,8.90
2018,04,02,17,16,8.90
2018,04,02,17,17,8.90
2018,04,02,17,18,8.90
2018,04,02,17,19,8.90
2018,04,02,17,20,8.90
2018,04,02,17,21,8.90
2018,04,02,17,22,8.90
2018,04,02,17,23,9.00
2018,04,02,17,24,9.00
2018,04,02,17,25,9.00
2018,04,02,17,26,8.90
2018,04,02,17,27,8.90
2018,04,02,17,28,8.90
2018,04,02,17,29,8.90
2018,04,02,17,30,8.80
2018,04,02,17,31,8.80
2018,04,02,17,32,8.80
2018,04,02,17,33,8.80
2018,04,02,17,34,8.80
2018,04,02,17,35,8.80
2018,04,02,17,36,8.80
2018,04,02,17,37,8.80
2018,04,02,17,38,8.80
2018,04,02,17,39,8.80
2018,04,02,17,40,8.80
2018,04,02,17,41,8.80
2018,04,02,17,42,8.80
2018,04,02,17,43,8.80
2018,04,02,17,44,8.70
2018,04,02,17,45,8.70
2018,04,02,17,46,8.70
2018,04,02,17,47,8.70
2018,04,02,17,48,8.70
2018,04,02,17,49,8.70
2018,04,02,17,50,8.70
2018,04,02,17,51,8.70
2018,04,02,17,52,8.80
2018,04,02,17,53,8.80
2018,04,02,17,54,8.80
2018,04,02,17,55,8.80
2018,04,02,17,56,8.80
2018,04,02,17,57,8.80
2018,04,02,17,58,8.80
2018,04,02,17,59,8.80
2018,04,02,18,00,8.80
2018,04,02,18,01,8.80
2018,04,02,18,02,8.70
2018,04,02,18,03,8.80
2018,04,02,18,04,8.80
2018,04,02,18,05,8.80
2018,04,02,18,06,8.80